Location: Gisborne
(38.6530°S, 178.0040°E)
Time: 01:55:46
(UTC+13:00)

Cosmos 1980 Rocket - Pass Details

Date: 24 January 2019
Orbit: 828 x 851 km, 71.0° (Epoch: 13 October)

Event Time Altitude Azimuth Distance (km) Brightness Sun altitude
Rises 21:00:41 0° 329° (NNW) 3,408 5.4 -6.2°
Reaches altitude 10° 21:03:10 10° 325° (NW) 2,479 4.7 -6.6°
Maximum altitude 21:08:48 61° 245° (WSW) 973 2.9 -7.5°
Drops below altitude 10° 21:14:29 10° 164° (SSE) 2,498 4.9 -8.5°
Sets 21:16:59 0° 160° (SSE) 3,437 5.6 -8.9°
